Miscellaneous Local Product
Issued by NWS Hastings, NE

Home | Current Version | Previous Version | Graphics & Text | Print | Product List | Glossary On
Versions: 1 2 3 4 5 6 7 8 9 10 11 12 13 14 15 16 17 18 19 20 21 22 23 24 25 26 27 28 29 30 31 32 33 34 35 36 37 38 39 40 41 42 43 44 45 46 47 48 49 50
000
AXUS43 KGID 312202
MISGRI

GID CWA HOURLY WEATHER ROUNDUP
NATIONAL WEATHER SERVICE HASTINGS NE
500 PM CDT SUN AUG 31 2014

NOTE: "FAIR" INDICATES FEW OR NO CLOUDS BELOW 12,000 FEET WITH NO
SIGNIFICANT WEATHER AND/OR OBSTRUCTIONS TO VISIBILITY.

...SOUTH CENTRAL NEBRASKA...

CITY           SKY/WX    TMP DP  RH WIND       PRES   REMARKS
GRAND ISLAND   MOSUNNY   79  64  60 NW25G37   29.71F
HASTINGS       MOSUNNY   84  63  49 NW10      29.68F
KEARNEY        MOSUNNY   75  59  57 NW24G30   29.77R
ORD            LGT RAIN  69  60  73 NW9       29.77S
YORK           PTSUNNY   82 N/A N/A CALM      29.69F
AURORA         MOSUNNY   83  65  54 NW12      29.65F THUNDER
LEXINGTON      CLOUDY    74  58  56 NE9G16    29.79F
HOLDREGE       MOSUNNY   76  57  52 N18G25    29.79R
HEBRON         TSTM      78  69  71 SE5       29.59F

...NEBRASKA PANHANDLE...

CITY           SKY/WX    TMP DP  RH WIND       PRES   REMARKS
CHADRON        CLOUDY    62  56  80 NE6       29.75F
ALLIANCE       CLOUDY    76  47  35 W17       29.76F
SCOTTSBLUFF    MOSUNNY   78  45  30 W16G22    29.79F
SIDNEY         CLOUDY    78  41  26 W21G29    29.85S

...WESTERN AND NORTH CENTRAL NEBRASKA...

CITY           SKY/WX    TMP DP  RH WIND       PRES   REMARKS
VALENTINE      CLOUDY    71  60  68 S5        29.74F
AINSWORTH      CLOUDY    66  59  77 CALM      29.74F
ONEILL         CLOUDY    71  62  73 CALM      29.76F
BROKEN BOW     LGT RAIN  68  60  75 VRB5      29.81S
IMPERIAL       CLOUDY    74  59  59 CALM      29.84R
NORTH PLATTE   PTSUNNY   68  58  70 S8        29.81R
MCCOOK         PTSUNNY   78  56  46 E12       29.80F

...EASTERN NEBRASKA...

CITY           SKY/WX    TMP DP  RH WIND       PRES   REMARKS
NORFOLK        TSTM      66  65  96 N21G33    29.75R VSB 3/4
SO SIOUX CITY  CLOUDY    78  67  68 S10       29.67F
TEKAMAH        PTSUNNY   80  71  74 SE8       29.65F
COLUMBUS       MOSUNNY   84  66  54 SW9       29.68F
ALBION         CLOUDY    67  64  89 CALM      29.76F
OMAHA EPPLEY   PTSUNNY   85  73  67 SE18      29.65F HX  91
OFFUTT AFB     MOSUNNY   86  78  78 SE17G24   29.65F HX  98
MILLARD        MOSUNNY   85  75  71 SE12G17   29.65F HX  94
LINCOLN        CLOUDY    88  67  49 SW3       29.64F HX  91
NEBRASKA CITY  MOSUNNY   89  68  49 S17G26    29.67F HX  92
BEATRICE       SUNNY     90  63  40 S13       29.65F HX  90
FALLS CITY     MOSUNNY   93  69  45 S20G30    29.68F HX  98

...NORTHERN KANSAS...

CITY           SKY/WX    TMP DP  RH WIND       PRES   REMARKS
GOODLAND       PTSUNNY   74  53  48 NE15      29.86R
HILL CITY      PTSUNNY   87  62  43 N16G25    29.73R
NORTON         CLEAR     81  52  36 N23G29    29.76F
PHILLIPSBURG   SUNNY     86  63  45 NW18G25   29.70S HAZE
SMITH CENTER   SUNNY     86  66  51 N24       29.65F
BELOIT         PTSUNNY   90  64  43 SE15G21   29.58F HX  91
HAYS           PTSUNNY   97  63  32 SW17G24   29.64F HX  98
RUSSELL        PTSUNNY   97  61  30 S26G40    29.61F HX  97
CONCORDIA      PTSUNNY   87  64  46 S8        29.65S
SALINA         SUNNY     98  60  28 S26G45    29.60F HX  98
TOPEKA         MOSUNNY   96  65  35 S24G33    29.71F HX  98



USA.gov is the U.S. government's official web portal to all federal, state and local government web resources and services.